Regional Weather Roundup
Issued by NWS

Home | Current Version | Previous Version | Graphics & Text | Print | Product List | Glossary Off
Versions: 1 2 3 4 5 6 7 8 9 10 11 12 13 14 15 16 17 18 19 20 21 22 23 24 25 26 27 28 29 30 31 32 33 34 35 36 37 38 39 40 41 42 43 44 45 46 47 48 49 50

000
ASUS43 KMKX 241111
RWRWI

WISCONSIN REGIONAL WEATHER ROUNDUP
NATIONAL WEATHER SERVICE MILWAUKEE/SULLIVAN WI
600 AM CDT WED MAY 24 2017

NOTE: "FAIR" INDICATES FEW OR NO CLOUDS BELOW 12,000 FEET WITH NO
SIGNIFICANT WEATHER AND/OR OBSTRUCTIONS TO VISIBILITY.

WIZ001-002-006>008-014>016-023>028-241200-
NORTHWEST WISCONSIN

CITY           SKY/WX    TMP DP  RH WIND       PRES   REMARKS
SUPERIOR ARPT  NOT AVBL
ASHLAND        CLOUDY    44  41  89 NE7       29.82S
HAYWARD        CLOUDY    46  42  86 N5        29.80S
SIREN          CLOUDY    43  42  95 CALM      29.81S
CUMBERLAND     CLOUDY    43  41  93 NE8       29.78S
RICE LAKE      CLOUDY    46  42  86 N6        29.79S
CHETEK         CLOUDY    46  43  91 NE7       29.77S
LADYSMITH      CLOUDY    44  43  95 N6        29.78S
EAU CLAIRE     CLOUDY    48  43  82 NE6       29.74F
MENOMONIE      CLOUDY    46  44  93 N8        29.76F
NEW RICHMOND   MOCLDY    44  42  93 N7        29.78S
OSCEOLA        CLOUDY    46  46 100 N5        29.81F
$$

WIZ003>005-009-010-017-018-241200-
NORTH CENTRAL WISCONSIN

CITY           SKY/WX    TMP DP  RH WIND       PRES   REMARKS
MANITOWISH WTR CLOUDY    45  45 100 N5        29.78S
ARBOR VITAE    CLOUDY    46  43  91 N5        29.76F
WOODRUFF       CLOUDY    46  43  91 N5        29.76F
RHINELANDER    CLOUDY    47  45  93 N5        29.75F
EAGLE RIVER    DRIZZLE   45  44  96 N6        29.76S
LAND O LAKES   CLOUDY    45  43  93 N7        29.78S
PHILLIPS       CLOUDY    45  43  93 NE8       29.76F
TOMAHAWK       LGT RAIN  45  43  93 N3        29.76S
MEDFORD        CLOUDY    45  43  93 NE8       29.74S
MERRILL        LGT RAIN  46  46 100 N5        29.74S
$$

WIZ029-030-035-036-043>047-241200-
CENTRAL WISCONSIN

CITY           SKY/WX    TMP DP  RH WIND       PRES   REMARKS
WAUSAU         CLOUDY    47  46  97 N7        29.71S
MOSINEE        LGT RAIN  46  46 100 N8        29.73S
MARSHFIELD     CLOUDY    48  45  89 NE8       29.72R
STEVENS POINT  CLOUDY    46  46 100 N6        29.72R
WAUPACA        CLOUDY    50  48  93 N5        29.71S
WAUTOMA        CLOUDY    48  47  96 N6        29.70R FOG
WISC RAPIDS    LGT RAIN  48  48 100 NE9       29.72S FOG
CAMP DOUGLAS   CLOUDY    48  48 100 NE8       29.70S
$$

WIZ011>013-019>022-031-037>040-048>050-241200-
NORTHEAST WISCONSIN

CITY           SKY/WX    TMP DP  RH WIND       PRES   REMARKS
ANTIGO         LGT RAIN  45  45  99 N7        29.73S
SHAWANO        DRIZZLE   49  47  92 NE10      29.72R
OCONTO         CLOUDY    47  46  97 N5        29.71S
STURGEON BAY   CLOUDY    48  46  93 NE8       29.71S
GREEN BAY      CLOUDY    49  49 100 NE13      29.70R
MANITOWOC      LGT RAIN  46  45  96 NE6       29.69S FOG
APPLETON       CLOUDY    48  48 100 NE9       29.68R FOG
CLINTONVILLE   CLOUDY    46  46 100 NE7       29.71R
OSHKOSH        CLOUDY    50  48  93 NE9       29.68R FOG
$$

WIZ032>034-041-042-053>061-241200-
SOUTHWEST WISCONSIN

CITY           SKY/WX    TMP DP  RH WIND       PRES   REMARKS
LA CROSSE      CLOUDY    52  49  89 CALM      29.71S
SPARTA         RAIN      48  48 100 NE5       29.72S
VIROQUA        CLOUDY    49  49 100 MISG      29.69S
BOSCOBEL       CLOUDY    52  48  86 N6        29.68S
PRAIRIE DU CHI CLOUDY    51  46  82 N6        29.68S
PLATTEVILLE    CLOUDY    51  51  99 NE7       29.66S
$$

WIZ056-057-062-063-064-067-068-241200-
SOUTH CENTRAL WISCONSIN

CITY           SKY/WX    TMP DP  RH WIND       PRES   REMARKS
REEDSBURG      CLOUDY    49  49 100 CALM      29.68S FOG
BARABOO/DELLS  CLOUDY    49  48  95 NE6       29.68S FOG
LONE ROCK      CLOUDY    51  48  89 NE5       29.67S FOG
MINERAL POINT  CLOUDY    50  50 100 N8        29.65F FOG
MADISON        CLOUDY    50  48  93 N8        29.65F
MIDDLETON      CLOUDY    51  51 100 NE6       29.67S
WATERTOWN      CLOUDY    49  49 100 NE3       29.65S
MONROE         CLOUDY    48  48 100 N9        29.64R FOG
JANESVILLE     CLOUDY    52  52 100 NE6       29.63F FOG
$$

WIZ051-052-058>065-066-070>072-241200-
SOUTHEAST WISCONSIN

CITY           SKY/WX    TMP DP  RH WIND       PRES   REMARKS
MILWAUKEE      LGT RAIN  48  47  96 N8        29.65F VSB 1/2
WAUKESHA       FOG       46  46 100 N3        29.66S VSB 1
MILWAUKEE/TIMM   N/A     46  45  93 NE7       29.66S FOG
RACINE         LGT RAIN  47  46  97 N7        29.66S
KENOSHA        RAIN      50  48  93 NE5       29.63S FOG
FOND DU LAC    LGT RAIN  50  48  93 NE9       29.68R FOG
SHEBOYGAN      LGT RAIN  48  48 100 NE8       29.67S
WEST BEND      CLOUDY    46  46 100 NE5       29.67S FOG
JUNEAU         DRIZZLE   48  48  99 N5        29.67S
$$

LSZ147-162-241200-
LAKE SUPERIOR

STATION/POSITION TIME  TEMP    WIND        PRES    WAVE
                       AIR SEA DIR/SP/G            HT/PER
                 (UTC) (F)     (DEG/KT/KT) (MB)    (FT/S)
W MID LAKE BUOY  1050   40 37   40/  6/  8 1010.8R   0
DEVILS ISLAND    1100   42      50/ 12/ 13 1010.7R
SAXON HARBOR     1040   43      10/  3/  5 1009.8R
$$

LMZ867-665-643>646-241200-
LAKE MICHIGAN

STATION/POSITION TIME  TEMP    WIND        PRES    WAVE
                       AIR SEA DIR/SP/G            HT/PER
                 (UTC) (F)     (DEG/KT/KT) (MB)    (FT/S)
CHAMBERS ISLAND  1030   47     360/ 14/ 16 1006.1S
N MID LAKE BUOY  1050   42 39   60/  4/  6 1007.3R   1/ 3
NORTHPORT PIER   1040   46     330/  4/  6 1006.4S
KEWAUNEE LAKESHO 1048   46      20/ 11/ 17 1005.1S
SHEBOYGAN LAKESH 1100   44      10/ 15/ 16 1005.1S
PORT WASHINGTON  1040   47      20/  2/  6 1005.8R
ATWATER BUOY     0909   45      20/ 10/ 12 1004.5F
MILWAUKEE LAKESH 1050   47     360/ 10/ 12   N/A
S MID LAKE BUOY  1050   47 45  360/ 12/ 14 1002.9F   1/ 3
KENOSHA   LAKESH 1100   49      10/ 10/ 12 1003.4
$$

TC  - TEMPERATURE IN CELSIUS
VSB - VISIBILITY IN STATUTE MILES
WCI - WIND CHILL INDEX
HX  - HEAT INDEX





USA.gov is the U.S. government's official web portal to all federal, state and local government web resources and services.